sat.trackr.live / text

‹ back to catalog

STARLINK-3934

NORAD 52675 · 2022-053V

PAYLOAD ACTIVE UNKNOWN

§ Identity

Operator
Country
US
Launch date
2022-05-18
Launch site
AFETR
Launch vehicle
Mass (kg)
RCS (m²)

Purposes: comms

External: N2YO · Heavens-Above · Gunter

§ Orbital elements

Epoch: 2026-05-25T01:47:00.270816Z

Period
95.44 min
Inclination
53.2121°
Eccentricity
0.0001250
Mean motion
15.08831728 rev/d
Perigee alt
538.9 km
Apogee alt
540.6 km
Semi-major
6,917.9 km
B*
8.0362e-5
RAAN
161.2179°
Arg perigee
103.1328°
Mean anomaly
256.9804°
Rev number
22,270

§ Raw data

STARLINK-39341 52675U 22053V   26145.07430869  .00000991  00000+0  80362-4 0  99932 52675  53.2121 161.2179 0001250 103.1328 256.9804 15.08831728222704

JSON: /api/v1/satellites/52675 · /tle

For live sub-satellite position, see the globe view (requires WebGL).

§ Visibility from observer

Set your observer location to see the next 7 days of passes ≥ 10°. The values pass through the URL so the page stays shareable.

No JS? Fill the form by hand. The geolocation button needs JavaScript.